Find Starlink 36297

NORAD ID: 67671 Int'l Des: 2026-022 Owner: SPXS Country: US Constellation: starlink operational
LEOCIRCULARRETROGRADE

Live Position

Loading 3D Globe...

About Starlink 36297

Description loading...

Upcoming Passes

Passes for default location (London). Set your location on the main map for personalized predictions.

Altitude History

Loading altitude history...

Two-Line Element Set

1 67671U 26022Z 26105.59691574 .00009218 00000-0 28750-3 0 9994
2 67671 97.2843 139.4858 0000925 74.0808 286.0537 15.33444262 11235
Epoch: Apr 15, 2026 • Age: 21 hours

Current Status

Altitude 470.9 km
Velocity 7.63 km/s
Sub-Earth Point 40.49°N, 126.56°E
Launch Date Feb 2, 2026
Age 0.1 years
Type internet

Technical Details

Classification Payload
Mass 575.00 kg
Dry Mass 530.00 kg
Total Mass 575.00 kg
Length 0.30 m
Diameter 4.10 m
Span 29.00 m
Shape Box + pan
Manufacturer SPXS
Bus Type Starlink V2MO
Phase Status In Orbit
Owner/State SPXS/US

Most Searched